Weather History for Lee's Summit, MO

Change the Weather History Date:

Thursday, December 27, 2012

  Actual Average (KMKC) Record (KMKC)
Temperature  
Mean Temperature 27 °F -  
Max Temperature 36 °F 38 °F 66 °F (2008)
Min Temperature 18 °F 21 °F 5 °F (2000)
Degree Days  
Heating Degree Days 38    
Moisture  
Dew Point 18 °F    
Average Humidity 71    
Maximum Humidity 81    
Minimum Humidity 55    
Precipitation  
Precipitation 0.00 in - - ()
Sea Level Pressure  
Sea Level Pressure 30.07 in    
Wind  
Wind Speed 5 mph (ESE)    
Max Wind Speed 13 mph    
Max Gust Speed 21 mph    
Visibility 10 miles    
Events      
Averages and records for this station are not official NWS values.
T = Trace of Precipitation, MM = Missing Value Source: NWS Daily Summary

Daily Weather History Graph

Daily Weather History Graph

Search for Another Location

Airport:

Trip Planner

Search our weather history database for the weather conditions in past years. The results will help you decide how hot, cold, wet, or windy it might be!

Date:

Astronomy

Dec. 27, 2012 Rise Set
Actual Time 7:35 AM CST 5:02 PM CST
Civil Twilight 7:05 AM CST 5:32 PM CST
Nautical Twilight 6:31 AM CST 6:06 PM CST
Astronomical Twilight 5:59 AM CST 6:38 PM CST
Moon 4:46 PM CST (12/27) 6:47 AM CST (12/27)
Length of Visible Light 10h 27m
Length of Day
9h 27m
Full, 100% of the Moon is Illuminated
Dec 27
Full
Dec 28
Full
Jan 4
Last Quarter
Jan 11
New
Jan 18
First Quarter

Hourly Weather History & Observations

Time (CST) Temp. Windchill Dew Point Humidity Pressure Visibility Wind Dir Wind Speed Gust Speed Precip Events Conditions
12:53 AM 19.9 °F - 12.9 °F 74% 30.20 in 10.0 mi Calm Calm - N/A   Clear
1:53 AM 19.0 °F 12.3 °F 12.9 °F 77% 30.19 in 10.0 mi East 4.6 mph - N/A   Clear
2:53 AM 19.0 °F 13.9 °F 14.0 °F 81% 30.20 in 10.0 mi ENE 3.5 mph - N/A   Clear
3:53 AM 18.0 °F 9.8 °F 12.9 °F 81% 30.18 in 10.0 mi East 5.8 mph - N/A   Clear
4:53 AM 19.0 °F 10.0 °F 12.9 °F 77% 30.14 in 10.0 mi East 6.9 mph - N/A   Clear
6:53 AM 19.0 °F 10.0 °F 14.0 °F 81% 30.15 in 10.0 mi East 6.9 mph - N/A   Mostly Cloudy
7:53 AM 21.0 °F 10.6 °F 16.0 °F 81% 30.12 in 10.0 mi East 9.2 mph - N/A   Overcast
8:53 AM 23.0 °F 13.1 °F 18.0 °F 81% 30.13 in 10.0 mi ESE 9.2 mph - N/A   Clear
9:53 AM 26.1 °F 15.0 °F 19.0 °F 75% 30.12 in 10.0 mi ESE 12.7 mph 20.7 mph N/A   Mostly Cloudy
10:53 AM 28.9 °F 20.4 °F 19.9 °F 69% 30.12 in 10.0 mi SE 9.2 mph - N/A   Overcast
11:53 AM 30.9 °F 23.5 °F 19.9 °F 64% 30.08 in 10.0 mi SE 8.1 mph 17.3 mph N/A   Mostly Cloudy
12:53 PM 33.1 °F 24.4 °F 21.0 °F 61% 30.02 in 10.0 mi ESE 11.5 mph 17.3 mph N/A   Clear
1:53 PM 35.1 °F 29.3 °F 21.0 °F 57% 29.99 in 10.0 mi SE 6.9 mph - N/A   Clear
3:53 PM 36.0 °F 28.0 °F 21.0 °F 55% 29.97 in 10.0 mi SE 11.5 mph - N/A   Scattered Clouds
4:53 PM 34.0 °F 28.8 °F 21.0 °F 59% 29.97 in 10.0 mi ESE 5.8 mph - N/A   Partly Cloudy
5:53 PM 33.1 °F 28.7 °F 21.0 °F 61% 29.99 in 10.0 mi SE 4.6 mph - N/A   Clear
6:53 PM 32.0 °F 28.7 °F 21.0 °F 64% 29.99 in 10.0 mi ESE 3.5 mph - N/A   Clear
7:53 PM 30.0 °F 25.2 °F 21.0 °F 69% 29.99 in 10.0 mi East 4.6 mph - N/A   Clear
8:53 PM 28.9 °F 23.9 °F 21.0 °F 72% 29.99 in 10.0 mi East 4.6 mph - N/A   Overcast
10:53 PM 30.0 °F 23.2 °F 21.9 °F 72% 29.98 in 10.0 mi East 6.9 mph - N/A   Overcast
11:53 PM 30.0 °F 25.2 °F 23.0 °F 75% 29.99 in 10.0 mi ESE 4.6 mph - N/A   Overcast